Air Resources Laboratory banner image
Air Resources Laboratory web site National Oceanic and Atmospheric Administration (NOAA)

ga zone


GAZ064-170800-
Columbia-
Including the cities of Martinez and Evans
702 PM EDT Tue Oct 16 2018

.TONIGHT...Mostly cloudy with a slight chance of showers with
isolated thunderstorms. Patchy fog after midnight. Lows in the
upper 60s. Northwest winds around 5 mph this evening, becoming
light and variable. Chance of rain 20 percent.
.WEDNESDAY...Partly sunny. A slight chance of showers in the
morning. Patchy fog in the morning. Highs in the mid 80s.
Northwest winds 5 to 10 mph. Chance of rain 20 percent.
.WEDNESDAY NIGHT...Partly cloudy. Less humid with lows in the mid
50s. Northeast winds 5 to 10 mph.
.THURSDAY...Mostly sunny. Highs in the lower 70s. Northeast winds
5 to 10 mph.
.THURSDAY NIGHT...Mostly clear. Lows in the upper 40s. East winds
around 5 mph.
.FRIDAY...Mostly sunny. Highs in the lower 70s.
.FRIDAY NIGHT...Mostly cloudy. Lows in the upper 50s.
.SATURDAY...Cloudy with a 40 percent chance of showers. Highs in
the upper 70s.
.SATURDAY NIGHT...Mostly cloudy with a chance of showers in the
evening, then partly cloudy after midnight. Lows in the lower
50s. Chance of rain 40 percent.
.SUNDAY...Mostly sunny. Highs in the lower 70s.
.SUNDAY NIGHT...Mostly clear. Lows in the mid 40s.
.MONDAY...Mostly sunny. Highs in the upper 60s.
.MONDAY NIGHT...Mostly cloudy. Lows in the upper 40s.
.TUESDAY...Partly sunny. Highs in the lower 70s.


GAZ065-170800-
Richmond-
Including the cities of Augusta and Hephzibah
702 PM EDT Tue Oct 16 2018

.TONIGHT...Mostly cloudy with a slight chance of showers with
isolated thunderstorms. Patchy fog after midnight. Lows in the
upper 60s. West winds around 5 mph this evening, becoming light
and variable. Chance of rain 20 percent.
.WEDNESDAY...Partly sunny. A slight chance of showers in the
morning. Patchy fog in the morning. Highs in the mid 80s.
Northwest winds 5 to 10 mph. Chance of rain 20 percent.
.WEDNESDAY NIGHT...Partly cloudy. Less humid with lows in the mid
50s. North winds 5 to 10 mph, becoming northeast after midnight.
.THURSDAY...Mostly sunny. Highs in the lower 70s. Northeast winds
5 to 10 mph with gusts up to 20 mph.
.THURSDAY NIGHT...Mostly clear. Lows in the upper 40s. East winds
around 5 mph.
.FRIDAY...Mostly sunny. Highs in the lower 70s.
.FRIDAY NIGHT...Mostly cloudy. Lows in the upper 50s.
.SATURDAY...Cloudy with a 40 percent chance of showers. Highs in
the upper 70s.
.SATURDAY NIGHT...Mostly cloudy with a chance of showers in the
evening, then partly cloudy after midnight. Lows in the lower
50s. Chance of rain 40 percent.
.SUNDAY...Sunny. Highs in the lower 70s.
.SUNDAY NIGHT...Mostly clear. Lows in the mid 40s.
.MONDAY...Mostly sunny. Highs in the upper 60s.
.MONDAY NIGHT...Mostly cloudy. Lows in the upper 40s.
.TUESDAY...Partly sunny. Highs in the lower 70s.


GAZ077-170800-
Burke-
Including the city of Waynesboro
702 PM EDT Tue Oct 16 2018

.TONIGHT...Partly cloudy this evening, then becoming mostly
cloudy. A slight chance of showers with isolated thunderstorms.
Patchy fog after midnight. Lows in the upper 60s. Southwest winds
around 5 mph. Chance of rain 20 percent.
.WEDNESDAY...Partly sunny. A slight chance of showers in the
morning. Patchy fog in the morning. Highs in the mid 80s.
Northwest winds around 5 mph, increasing to around 10 mph in the
afternoon. Chance of rain 20 percent.
.WEDNESDAY NIGHT...Partly cloudy. Less humid with lows in the
upper 50s. North winds 5 to 10 mph, becoming northeast with gusts
up to 20 mph after midnight.
.THURSDAY...Mostly sunny. Highs in the lower 70s. Northeast winds
10 to 15 mph.
.THURSDAY NIGHT...Mostly clear. Lows in the upper 40s. Northeast
winds 5 to 10 mph.
.FRIDAY...Mostly sunny. Highs in the mid 70s.
.FRIDAY NIGHT...Mostly cloudy. Lows in the upper 50s.
.SATURDAY...Cloudy with a 40 percent chance of showers. Highs
around 80.
.SATURDAY NIGHT...Mostly cloudy with a chance of showers in the
evening, then partly cloudy after midnight. Lows in the lower
50s. Chance of rain 40 percent.
.SUNDAY...Mostly sunny. Highs in the lower 70s.
.SUNDAY NIGHT...Mostly clear. Lows in the mid 40s.
.MONDAY...Mostly sunny. Highs around 70.
.MONDAY NIGHT...Mostly cloudy. Lows in the upper 40s.
.TUESDAY...Partly sunny. Highs in the mid 70s.


GAZ040-170800-
Lincoln-
Including the city of Lincolnton
702 PM EDT Tue Oct 16 2018

.TONIGHT...Mostly cloudy with a slight chance of showers with
isolated thunderstorms. Patchy fog after midnight. Lows in the
mid 60s. West winds around 5 mph this evening, becoming light and
variable. Chance of rain 20 percent.
.WEDNESDAY...Mostly cloudy in the morning, then becoming partly
sunny. Patchy fog in the morning. Highs in the lower 80s.
Northwest winds 5 to 10 mph.
.WEDNESDAY NIGHT...Partly cloudy. Less humid with lows in the mid
50s. Northeast winds 5 to 10 mph.
.THURSDAY...Mostly sunny. Highs in the lower 70s. Northeast winds
5 to 10 mph.
.THURSDAY NIGHT...Mostly clear. Lows in the upper 40s. East winds
around 5 mph.
.FRIDAY...Mostly sunny. Highs in the lower 70s.
.FRIDAY NIGHT...Mostly cloudy. Lows in the upper 50s.
.SATURDAY...Cloudy with a 40 percent chance of showers. Highs in
the upper 70s.
.SATURDAY NIGHT...Mostly cloudy with a chance of showers in the
evening, then partly cloudy after midnight. Lows around 50.
Chance of rain 40 percent.
.SUNDAY...Sunny. Highs in the lower 70s.
.SUNDAY NIGHT...Mostly clear. Lows in the mid 40s.
.MONDAY...Mostly sunny. Highs around 70.
.MONDAY NIGHT...Partly cloudy in the evening, then becoming
mostly cloudy. Lows in the upper 40s.
.TUESDAY...Partly sunny. Highs in the mid 70s.


GAZ063-170800-
McDuffie-
Including the city of Thomson
702 PM EDT Tue Oct 16 2018

.TONIGHT...Mostly cloudy with a slight chance of showers with
isolated thunderstorms. Patchy fog after midnight. Lows in the
mid 60s. Northwest winds around 5 mph this evening, becoming
light and variable. Chance of rain 20 percent.
.WEDNESDAY...Partly sunny. Patchy fog in the morning. Highs in
the mid 80s. Northwest winds 5 to 10 mph.
.WEDNESDAY NIGHT...Partly cloudy. Less humid with lows in the mid
50s. North winds around 5 mph, becoming northeast after midnight.
.THURSDAY...Mostly sunny. Highs in the lower 70s. Northeast winds
5 to 10 mph.
.THURSDAY NIGHT...Mostly clear. Lows in the upper 40s. East winds
around 5 mph.
.FRIDAY...Mostly sunny. Highs in the lower 70s.
.FRIDAY NIGHT...Mostly cloudy. Lows in the upper 50s.


123
FPUS54 KBMX 162303 PAC
ZFPBMX
. Highs in the lower 70s. North winds 5 to 10 mph.
.WEDNESDAY NIGHT...Mostly cloudy. Lows in the lower 50s. North
winds around 5 mph.
.THURSDAY...Partly cloudy. Highs in the mid 70s. Northeast winds
around 5 mph.
.THURSDAY NIGHT...Mostly cloudy. Lows in the mid 50s. East winds
around 5 mph.
.FRIDAY...Mostly cloudy. Highs in the upper 70s.
.FRIDAY NIGHT...Cloudy with a 40 percent chance of rain showers.
Lows around 60.
.SATURDAY...Rain showers likely. Highs in the lower 70s. Chance
of rain 60 percent.
.SATURDAY NIGHT...Cooler. Mostly cloudy in the evening then
becoming partly cloudy. A 20 percent chance of rain showers. Lows
in the upper 40s.
.SUNDAY...Mostly sunny. Highs in the upper 60s.
.SUNDAY NIGHT...Mostly clear. Lows in the mid 40s.
.MONDAY...Mostly sunny. Highs in the lower 70s.
.MONDAY NIGHT...Partly cloudy. Lows around 50.
.TUESDAY...Partly cloudy in the morning then becoming mostly
cloudy. Highs in the lower 70s.


GAZ044-118-TXZ119-213-NCZ071-DCZ001-MDZ014-506-PAZ021-071-NJZ106-
NYZ176-178-MAZ106-OHZ011-021-055-MIZ076-KYZ091-ILZ014-INZ047-
MNZ060-ONZ431-170000-

...Gateway Observations for Savannah International...

CITY           SKY/WX    TMP DP  RH WIND       PRES   REMARKS
Savannah Arpt  FAIR      82  76  81 S9        30.07R
Atlanta        MOCLDY    74  65  73 N9        30.12R
Charlotte      MOCLDY    72  69  90 N9G23     30.10R
Dallas DFW     CLOUDY    50  47  89 N9        30.22S
Houston Bush   CLOUDY    58  57  97 N9        30.09R
Wash National  CLOUDY    59  40  49 SW7       30.13R
Wash Dulles    MOCLDY    53  48  83 CALM      30.13R
Baltimore      CLOUDY    54  42  64 CALM      30.12R
Philadelphia   CLOUDY    54  34  46 W6        30.10S
Newark         MOCLDY    51  35  54 SW13      30.08R
Laguardia      MOCLDY    55  32  41 SW12      30.06S
J F K          MOCLDY    53  37  54 W14       30.08S
Boston         FAIR      54  31  41 W10       30.00R
Pittsburg      MOCLDY    48  33  56 SW6       30.09S
Akron          MOCLDY    49  30  48 SW9       30.06S
Cleveland      FAIR      51  27  39 SW9       30.05F
Cincinnati     MOCLDY    49  38  65 SW5       30.15S
Columbus       FAIR      48  35  61 SW7       30.12R
Detroit        FAIR      53  28  38 SW12      29.97F
Chicago O'Hare FAIR      57  33  40 SW15G24   29.99S
Minneapolis    FAIR      52  30  43 NW17G28   30.02R
Indianapolis   FAIR      49  36  61 SW13      30.13S
Toronto Canada MOCLDY    50  32  50 SW15G21   29.90F


GAZ044-118-TXZ119-213-NCZ071-DCZ001-MDZ014-506-PAZ021-071-NJZ106-
NYZ176-178-MAZ106-OHZ011-021-055-MIZ076-KYZ091-ILZ014-INZ047-
MNZ060-ONZ431-170000-

...Gateway Observations for Savannah International...

CITY           SKY/WX    TMP DP  RH WIND       PRES   REMARKS
Savannah Arpt  FAIR      82  76  81 S9        30.07R
Atlanta        MOCLDY    74  65  73 N9        30.12R
Charlotte      MOCLDY    72  69  90 N9G23     30.10R
Dallas DFW     CLOUDY    50  47  89 N9        30.22S
Houston Bush   CLOUDY    58  57  97 N9        30.09R
Wash National  CLOUDY    59  40  49 SW7       30.13R
Wash Dulles    MOCLDY    53  48  83 CALM      30.13R
Baltimore      CLOUDY    54  42  64 CALM      30.12R
Philadelphia   CLOUDY    54  34  46 W6        30.10S
Newark         MOCLDY    51  35  54 SW13      30.08R
Laguardia      MOCLDY    55  32  41 SW12      30.06S
J F K          MOCLDY    53  37  54 W14       30.08S
Boston         FAIR      54  31  41 W10       30.00R
Pittsburg      MOCLDY    48  33  56 SW6       30.09S
Akron          MOCLDY    49  30  48 SW9       30.06S
Cleveland      FAIR      51  27  39 SW9       30.05F
Cincinnati     MOCLDY    49  38  65 SW5       30.15S
Columbus       FAIR      46  35  64 SW5       30.11F
Detroit        FAIR      53  28  38 SW12      29.97F
Chicago O'Hare FAIR      57  33  40 SW15G24   29.99S
Minneapolis    FAIR      52  30  43 NW17G28   30.02R
Indianapolis   FAIR      49  36  61 SW13      30.13S
Toronto Canada MOCLDY    50  32  50 SW15G21   29.90F